M I D A S
Marine Information and Data Acquisition System
Tripno 1077 of the Zeeleeuw from 2006-04-27 07:06:49 to 2006-04-27 13:13:56
Back to CruiseResearch ActivitiesStationsMapUnderway DataData graphs

EquipmentUnitsComments
TimeDGPSUTC
LatitudeDGPSDM.mWGS84
LongitudeDGPSDM.mWGS84
SpeedMeteo Stationm/sRelative wind speed
DirectionMeteo StationdegRelative wind direction
TemperatureMeteo Stationdeg CelciusAir temperature
PressureMeteo StationPaAtmospheric pressure
HumidityMeteo Station%Relative humidity
Missing or incorrect values are displayed as -999
Metereological data collected by the RV Zeeleeuw from 2006-04-27 06:12:50 to 2006-04-27 13:24:31
                                                                                    Next 1000 lines
Time Latitude Longitude Speed Direction Temperature Pressure Humidity
2006-04-27 06:13:00 51°13.602 2°56.097 -999 280 10.5 102320 74
2006-04-27 06:13:05 51°13.602 2°56.096 -999 268 10.5 102320 74
2006-04-27 06:13:10 51°13.603 2°56.097 -999 263 10.5 102320 74
2006-04-27 06:13:15 51°13.603 2°56.097 -999 265 10.5 102320 74
2006-04-27 06:13:20 51°13.603 2°56.096 -999 273 10.5 102320 74
2006-04-27 06:13:24 51°13.603 2°56.097 -999 286 10.5 102320 73
2006-04-27 06:13:30 51°13.603 2°56.097 -999 281 10.5 102320 73
2006-04-27 06:13:35 51°13.603 2°56.097 -999 282 10.5 102320 73
2006-04-27 06:13:40 51°13.603 2°56.097 -999 278 10.5 102320 73
2006-04-27 06:13:44 51°13.602 2°56.097 -999 265 10.6 102320 73
2006-04-27 06:13:50 51°13.602 2°56.097 -999 259 10.6 102320 73
2006-04-27 06:13:55 51°13.602 2°56.097 -999 253 10.6 102320 73
2006-04-27 06:14:00 51°13.603 2°56.097 -999 290 10.6 102320 73
2006-04-27 06:14:05 51°13.603 2°56.098 -999 266 10.6 102320 73
2006-04-27 06:14:10 51°13.603 2°56.098 -999 264 10.6 102320 73
2006-04-27 06:14:15 51°13.603 2°56.098 -999 268 10.6 102320 73
2006-04-27 06:14:20 51°13.603 2°56.099 -999 261 10.6 102320 73
2006-04-27 06:14:25 51°13.603 2°56.099 -999 267 10.6 102320 73
2006-04-27 06:14:30 51°13.602 2°56.099 -999 268 10.6 102320 73
2006-04-27 06:14:35 51°13.602 2°56.099 -999 282 10.6 102320 73
2006-04-27 06:14:40 51°13.602 2°56.099 -999 262 10.6 102320 73
2006-04-27 06:14:45 51°13.602 2°56.099 -999 270 10.6 102320 73
2006-04-27 06:14:50 51°13.602 2°56.099 -999 277 10.6 102320 73
2006-04-27 06:14:55 51°13.602 2°56.099 -999 269 10.7 102320 73
2006-04-27 06:15:00 51°13.602 2°56.099 -999 277 10.7 102320 73
2006-04-27 06:15:05 51°13.602 2°56.099 -999 298 10.7 102320 73
2006-04-27 06:15:10 51°13.602 2°56.099 -999 291 10.7 102320 73
2006-04-27 06:15:16 51°13.602 2°56.099 -999 281 10.7 102320 72
2006-04-27 06:15:21 51°13.601 2°56.099 -999 275 10.7 102320 72
2006-04-27 06:15:26 51°13.601 2°56.099 -999 278 10.7 102320 72
2006-04-27 06:15:31 51°13.601 2°56.099 -999 278 10.7 102320 72
2006-04-27 06:15:36 51°13.601 2°56.099 -999 274 10.7 102320 72
2006-04-27 06:15:41 51°13.601 2°56.099 -999 275 10.7 102320 72
2006-04-27 06:15:45 51°13.601 2°56.099 -999 292 10.7 102320 72
2006-04-27 06:15:51 51°13.601 2°56.099 -999 256 10.7 102320 72
2006-04-27 06:15:56 51°13.6 2°56.099 -999 289 10.7 102320 72
2006-04-27 06:16:01 51°13.6 2°56.099 -999 265 10.7 102320 72
2006-04-27 06:16:05 51°13.6 2°56.099 -999 244 10.7 102320 72
2006-04-27 06:16:11 51°13.6 2°56.099 -999 259 10.7 102320 72
2006-04-27 06:16:16 51°13.6 2°56.099 -999 300 10.8 102320 72
2006-04-27 06:16:21 51°13.6 2°56.099 -999 273 10.8 102320 72
2006-04-27 06:16:25 51°13.6 2°56.099 -999 278 10.8 102320 72
2006-04-27 06:16:31 51°13.6 2°56.099 -999 265 10.8 102320 72
2006-04-27 06:16:36 51°13.6 2°56.099 -999 261 10.8 102320 72
2006-04-27 06:16:41 51°13.601 2°56.099 -999 264 10.8 102320 72
2006-04-27 06:16:45 51°13.601 2°56.099 -999 264 10.8 102320 72
2006-04-27 06:16:51 51°13.601 2°56.099 -999 249 10.8 102320 72
2006-04-27 06:16:55 51°13.601 2°56.099 -999 291 10.8 102320 72
2006-04-27 06:17:01 51°13.601 2°56.099 -999 245 10.8 102320 72
2006-04-27 06:17:06 51°13.601 2°56.099 -999 282 10.8 102320 72
2006-04-27 06:17:11 51°13.601 2°56.099 -999 262 10.8 102320 72
2006-04-27 06:17:16 51°13.601 2°56.099 -999 269 10.8 102320 72
2006-04-27 06:17:21 51°13.601 2°56.099 -999 265 10.8 102320 72
2006-04-27 06:17:26 51°13.601 2°56.099 -999 260 10.8 102320 72
2006-04-27 06:17:30 51°13.601 2°56.099 -999 268 10.8 102320 72
2006-04-27 06:17:34 51°13.601 2°56.099 -999 281 10.8 102320 71
2006-04-27 06:17:39 51°13.601 2°56.099 -999 264 10.8 102320 71
2006-04-27 06:17:43 51°13.601 2°56.099 -999 262 10.9 102320 71
2006-04-27 06:17:48 51°13.601 2°56.099 -999 241 10.9 102320 71
2006-04-27 06:17:52 51°13.601 2°56.099 -999 261 10.9 102320 71
2006-04-27 06:17:57 51°13.601 2°56.099 -999 266 10.9 102320 71
2006-04-27 06:18:02 51°13.601 2°56.099 -999 264 10.9 102320 71
2006-04-27 06:18:08 51°13.601 2°56.099 -999 255 10.9 102320 71
2006-04-27 06:18:12 51°13.601 2°56.099 -999 266 10.9 102320 71
2006-04-27 06:18:17 51°13.601 2°56.099 -999 265 10.9 102320 71
2006-04-27 06:18:22 51°13.601 2°56.099 -999 266 10.9 102320 71
2006-04-27 06:18:27 51°13.601 2°56.099 -999 257 10.9 102320 71
2006-04-27 06:18:32 51°13.601 2°56.099 -999 255 10.9 102320 71
2006-04-27 06:18:37 51°13.601 2°56.1 -999 248 10.9 102320 71
2006-04-27 06:18:42 51°13.601 2°56.1 -999 249 10.9 102320 71
2006-04-27 06:18:47 51°13.601 2°56.1 -999 248 10.9 102320 71
2006-04-27 06:18:52 51°13.601 2°56.1 -999 239 10.9 102320 71
2006-04-27 06:18:57 51°13.601 2°56.1 -999 254 10.9 102320 71
2006-04-27 06:19:02 51°13.601 2°56.1 -999 259 10.9 102330 71
2006-04-27 06:19:07 51°13.601 2°56.1 -999 241 10.9 102330 71
2006-04-27 06:19:12 51°13.601 2°56.1 -999 252 10.9 102320 71
2006-04-27 06:19:17 51°13.601 2°56.1 -999 249 10.9 102320 71
2006-04-27 06:19:22 51°13.601 2°56.1 -999 256 10.9 102330 71
2006-04-27 06:19:27 51°13.601 2°56.1 -999 261 10.9 102330 71
2006-04-27 06:19:32 51°13.602 2°56.1 -999 263 10.9 102330 71
2006-04-27 06:19:37 51°13.602 2°56.1 -999 262 10.9 102330 71
2006-04-27 06:19:42 51°13.602 2°56.1 -999 267 10.9 102320 71
2006-04-27 06:19:47 51°13.602 2°56.1 -999 269 10.9 102320 71
2006-04-27 06:19:52 51°13.602 2°56.1 -999 253 10.9 102320 71
2006-04-27 06:19:57 51°13.602 2°56.1 -999 255 10.9 102320 71
2006-04-27 06:20:02 51°13.602 2°56.1 -999 255 10.9 102320 71
2006-04-27 06:20:07 51°13.602 2°56.1 -999 260 10.9 102320 71
2006-04-27 06:20:12 51°13.602 2°56.1 -999 263 10.9 102320 71
2006-04-27 06:20:17 51°13.602 2°56.1 -999 249 10.9 102320 71
2006-04-27 06:20:22 51°13.602 2°56.1 -999 249 10.9 102320 71
2006-04-27 06:20:28 51°13.602 2°56.1 -999 253 10.9 102320 71
2006-04-27 06:20:32 51°13.602 2°56.1 -999 258 10.9 102320 71
2006-04-27 06:20:37 51°13.602 2°56.1 -999 246 10.9 102320 71
2006-04-27 06:20:42 51°13.602 2°56.1 -999 249 10.9 102320 71
2006-04-27 06:20:47 51°13.602 2°56.1 -999 253 10.9 102320 71
2006-04-27 06:20:52 51°13.602 2°56.1 -999 265 10.8 102330 71
2006-04-27 06:20:57 51°13.602 2°56.1 -999 257 10.8 102330 71
2006-04-27 06:21:02 51°13.602 2°56.1 -999 249 10.8 102320 71
2006-04-27 06:21:07 51°13.602 2°56.1 -999 261 10.8 102320 71
2006-04-27 06:21:12 51°13.602 2°56.1 -999 263 10.8 102320 71
2006-04-27 06:21:17 51°13.602 2°56.1 -999 264 10.8 102320 71
2006-04-27 06:21:22 51°13.602 2°56.1 -999 258 10.8 102320 71
2006-04-27 06:21:27 51°13.602 2°56.1 -999 262 10.8 102320 71
2006-04-27 06:21:32 51°13.602 2°56.1 -999 271 10.8 102330 71
2006-04-27 06:21:37 51°13.602 2°56.1 -999 248 10.8 102330 71
2006-04-27 06:21:42 51°13.602 2°56.1 -999 251 10.8 102330 71
2006-04-27 06:21:47 51°13.602 2°56.1 -999 247 10.8 102330 71
2006-04-27 06:21:52 51°13.602 2°56.1 -999 259 10.8 102330 71
2006-04-27 06:21:57 51°13.602 2°56.1 -999 252 10.8 102330 71
2006-04-27 06:22:02 51°13.602 2°56.1 -999 250 10.8 102330 71
2006-04-27 06:22:08 51°13.602 2°56.1 -999 250 10.8 102330 71
2006-04-27 06:22:12 51°13.602 2°56.1 -999 245 10.8 102320 71
2006-04-27 06:22:17 51°13.602 2°56.1 -999 243 10.8 102320 71
2006-04-27 06:22:22 51°13.602 2°56.1 -999 250 10.8 102330 71
2006-04-27 06:22:28 51°13.602 2°56.1 -999 245 10.8 102330 71
2006-04-27 06:22:32 51°13.602 2°56.1 -999 242 10.8 102330 71
2006-04-27 06:22:37 51°13.602 2°56.1 -999 243 10.8 102330 71
2006-04-27 06:22:42 51°13.602 2°56.1 -999 252 10.7 102320 71
2006-04-27 06:22:48 51°13.602 2°56.1 -999 241 10.7 102320 71
2006-04-27 06:22:52 51°13.602 2°56.1 -999 252 10.8 102320 71
2006-04-27 06:22:57 51°13.602 2°56.1 -999 249 10.8 102320 71
2006-04-27 06:23:02 51°13.602 2°56.1 -999 255 10.8 102330 72
2006-04-27 06:23:07 51°13.601 2°56.099 -999 259 10.8 102330 72
2006-04-27 06:23:12 51°13.601 2°56.099 -999 261 10.8 102330 72
2006-04-27 06:23:17 51°13.601 2°56.099 -999 242 10.8 102330 72
2006-04-27 06:23:22 51°13.601 2°56.099 -999 258 10.7 102330 72
2006-04-27 06:23:27 51°13.601 2°56.099 -999 256 10.7 102330 72
2006-04-27 06:23:32 51°13.602 2°56.099 -999 259 10.7 102330 72
2006-04-27 06:23:37 51°13.601 2°56.099 -999 260 10.7 102330 72
2006-04-27 06:23:42 51°13.601 2°56.099 -999 260 10.7 102330 72
2006-04-27 06:23:47 51°13.602 2°56.099 -999 251 10.7 102330 72
2006-04-27 06:23:52 51°13.602 2°56.1 -999 245 10.7 102330 72
2006-04-27 06:23:57 51°13.602 2°56.1 -999 245 10.7 102330 72
2006-04-27 06:24:02 51°13.602 2°56.1 -999 256 10.7 102330 72
2006-04-27 06:24:07 51°13.602 2°56.1 -999 254 10.7 102330 72
2006-04-27 06:24:12 51°13.602 2°56.1 -999 249 10.7 102330 72
2006-04-27 06:24:17 51°13.602 2°56.1 -999 241 10.7 102330 72
2006-04-27 06:24:22 51°13.602 2°56.1 -999 245 10.7 102330 72
2006-04-27 06:24:27 51°13.602 2°56.1 -999 245 10.7 102330 72
2006-04-27 06:24:32 51°13.602 2°56.1 -999 259 10.7 102330 72
2006-04-27 06:24:37 51°13.602 2°56.1 -999 255 10.7 102330 72
2006-04-27 06:24:42 51°13.602 2°56.1 -999 226 10.7 102330 72
2006-04-27 06:24:47 51°13.602 2°56.1 -999 243 10.7 102330 72
2006-04-27 06:24:52 51°13.602 2°56.1 -999 249 10.7 102330 72
2006-04-27 06:24:57 51°13.602 2°56.1 -999 258 10.7 102330 72
2006-04-27 06:25:02 51°13.602 2°56.1 -999 250 10.7 102330 72
2006-04-27 06:25:07 51°13.602 2°56.1 -999 265 10.7 102330 72
2006-04-27 06:25:12 51°13.602 2°56.1 -999 255 10.7 102330 72
2006-04-27 06:25:17 51°13.602 2°56.1 -999 254 10.7 102330 72
2006-04-27 06:25:22 51°13.602 2°56.1 -999 254 10.7 102330 72
2006-04-27 06:25:27 51°13.602 2°56.099 -999 245 10.7 102330 72
2006-04-27 06:25:32 51°13.602 2°56.1 -999 246 10.7 102330 72
2006-04-27 06:25:37 51°13.602 2°56.099 -999 249 10.7 102330 72
2006-04-27 06:25:42 51°13.602 2°56.099 -999 251 10.7 102330 72
2006-04-27 06:25:47 51°13.601 2°56.099 -999 254 10.7 102330 72
2006-04-27 06:25:52 51°13.601 2°56.099 -999 246 10.7 102330 72
2006-04-27 06:25:57 51°13.601 2°56.099 -999 250 10.7 102330 72
2006-04-27 06:26:02 51°13.601 2°56.099 -999 254 10.7 102330 72
2006-04-27 06:26:07 51°13.601 2°56.099 -999 253 10.7 102330 72
2006-04-27 06:26:12 51°13.601 2°56.099 -999 259 10.7 102330 72
2006-04-27 06:26:17 51°13.601 2°56.099 -999 248 10.7 102330 72
2006-04-27 06:26:22 51°13.601 2°56.099 -999 249 10.7 102330 72
2006-04-27 06:26:27 51°13.601 2°56.099 -999 252 10.7 102330 72
2006-04-27 06:26:32 51°13.601 2°56.099 -999 253 10.7 102330 72
2006-04-27 06:26:37 51°13.601 2°56.099 -999 250 10.7 102330 72
2006-04-27 06:26:42 51°13.601 2°56.099 -999 247 10.7 102330 72
2006-04-27 06:26:47 51°13.601 2°56.099 -999 262 10.7 102330 72
2006-04-27 06:26:52 51°13.601 2°56.099 -999 248 10.7 102330 72
2006-04-27 06:26:57 51°13.601 2°56.099 -999 249 10.7 102330 72
2006-04-27 06:27:02 51°13.601 2°56.099 -999 244 10.7 102330 72
2006-04-27 06:27:07 51°13.601 2°56.099 -999 245 10.7 102330 72
2006-04-27 06:27:12 51°13.601 2°56.099 -999 254 10.7 102330 72
2006-04-27 06:27:17 51°13.602 2°56.1 -999 265 10.7 102330 72
2006-04-27 06:27:22 51°13.602 2°56.099 -999 262 10.7 102330 72
2006-04-27 06:27:27 51°13.602 2°56.1 -999 262 10.7 102330 72
2006-04-27 06:27:32 51°13.602 2°56.099 -999 260 10.7 102330 72
2006-04-27 06:27:37 51°13.602 2°56.099 -999 259 10.7 102330 72
2006-04-27 06:27:41 51°13.602 2°56.099 -999 266 10.7 102330 72
2006-04-27 06:27:47 51°13.602 2°56.099 -999 256 10.7 102330 72
2006-04-27 06:27:52 51°13.602 2°56.1 -999 247 10.7 102330 71
2006-04-27 06:27:57 51°13.602 2°56.1 -999 257 10.7 102330 71
2006-04-27 06:28:02 51°13.602 2°56.099 -999 255 10.7 102330 71
2006-04-27 06:28:07 51°13.602 2°56.099 -999 249 10.7 102330 71
2006-04-27 06:28:12 51°13.602 2°56.099 -999 251 10.7 102330 71
2006-04-27 06:28:17 51°13.602 2°56.099 -999 257 10.7 102330 71
2006-04-27 06:28:22 51°13.602 2°56.099 -999 245 10.7 102330 71
2006-04-27 06:28:27 51°13.602 2°56.099 -999 244 10.7 102330 71
2006-04-27 06:28:32 51°13.602 2°56.099 -999 247 10.7 102330 71
2006-04-27 06:28:37 51°13.602 2°56.099 -999 248 10.7 102330 71
2006-04-27 06:28:42 51°13.602 2°56.1 -999 255 10.7 102330 71
2006-04-27 06:28:47 51°13.602 2°56.1 -999 253 10.7 102330 71
2006-04-27 06:28:52 51°13.602 2°56.1 -999 260 10.7 102330 71
2006-04-27 06:28:57 51°13.602 2°56.1 -999 254 10.7 102330 71
2006-04-27 06:29:02 51°13.602 2°56.1 -999 259 10.7 102330 71
2006-04-27 06:29:07 51°13.602 2°56.1 -999 258 10.7 102330 71
2006-04-27 06:29:12 51°13.602 2°56.1 -999 253 10.7 102330 71
2006-04-27 06:29:17 51°13.602 2°56.1 -999 260 10.7 102330 71
2006-04-27 06:29:22 51°13.602 2°56.099 -999 261 10.7 102330 71
2006-04-27 06:29:27 51°13.602 2°56.099 -999 258 10.7 102330 71
2006-04-27 06:29:32 51°13.602 2°56.099 -999 254 10.7 102330 71
2006-04-27 06:29:37 51°13.602 2°56.099 -999 254 10.7 102330 71
2006-04-27 06:29:42 51°13.602 2°56.099 -999 252 10.7 102340 71
2006-04-27 06:29:47 51°13.602 2°56.099 -999 263 10.7 102340 71
2006-04-27 06:29:52 51°13.602 2°56.099 -999 264 10.7 102330 71
2006-04-27 06:29:57 51°13.602 2°56.099 -999 252 10.7 102330 71
2006-04-27 06:30:02 51°13.602 2°56.099 -999 249 10.7 102340 71
2006-04-27 06:30:07 51°13.602 2°56.099 -999 256 10.7 102340 71
2006-04-27 06:30:12 51°13.602 2°56.099 -999 254 10.7 102340 71
2006-04-27 06:30:17 51°13.602 2°56.099 -999 253 10.7 102340 71
2006-04-27 06:30:21 51°13.602 2°56.099 -999 253 10.7 102330 71
2006-04-27 06:30:27 51°13.602 2°56.099 -999 247 10.7 102330 71
2006-04-27 06:30:32 51°13.602 2°56.099 -999 253 10.7 102340 71
2006-04-27 06:30:37 51°13.602 2°56.099 -999 236 10.7 102340 71
2006-04-27 06:30:41 51°13.602 2°56.099 -999 254 10.7 102340 71
2006-04-27 06:30:47 51°13.602 2°56.099 -999 247 10.7 102340 71
2006-04-27 06:30:52 51°13.602 2°56.099 -999 244 10.7 102340 71
2006-04-27 06:30:57 51°13.602 2°56.099 -999 245 10.7 102340 71
2006-04-27 06:31:02 51°13.602 2°56.099 -999 245 10.7 102330 71
2006-04-27 06:31:07 51°13.602 2°56.099 -999 245 10.7 102330 71
2006-04-27 06:31:11 51°13.602 2°56.099 -999 259 10.7 102330 71
2006-04-27 06:31:17 51°13.602 2°56.1 -999 261 10.7 102330 71
2006-04-27 06:31:21 51°13.602 2°56.1 -999 256 10.7 102340 71
2006-04-27 06:31:27 51°13.602 2°56.1 -999 262 10.7 102340 71
2006-04-27 06:31:32 51°13.602 2°56.1 -999 259 10.7 102340 71
2006-04-27 06:31:37 51°13.602 2°56.1 -999 257 10.7 102340 71
2006-04-27 06:31:42 51°13.601 2°56.1 -999 266 10.7 102330 71
2006-04-27 06:31:47 51°13.601 2°56.1 -999 248 10.7 102330 71
2006-04-27 06:31:52 51°13.601 2°56.1 -999 242 10.7 102340 71
2006-04-27 06:31:57 51°13.601 2°56.1 -999 258 10.7 102340 71
2006-04-27 06:32:02 51°13.601 2°56.1 -999 252 10.7 102330 71
2006-04-27 06:32:07 51°13.602 2°56.1 -999 261 10.7 102330 71
2006-04-27 06:32:11 51°13.601 2°56.1 -999 257 10.7 102330 71
2006-04-27 06:32:17 51°13.601 2°56.1 -999 258 10.7 102330 71
2006-04-27 06:32:22 51°13.601 2°56.1 -999 259 10.7 102330 71
2006-04-27 06:32:27 51°13.601 2°56.1 -999 261 10.7 102330 71
2006-04-27 06:32:32 51°13.601 2°56.1 -999 266 10.7 102340 71
2006-04-27 06:32:37 51°13.601 2°56.1 -999 254 10.7 102340 71
2006-04-27 06:32:42 51°13.601 2°56.1 -999 253 10.7 102340 71
2006-04-27 06:32:47 51°13.601 2°56.1 -999 260 10.7 102340 71
2006-04-27 06:32:52 51°13.601 2°56.1 -999 266 10.7 102340 71
2006-04-27 06:32:57 51°13.601 2°56.1 -999 258 10.7 102340 71
2006-04-27 06:33:01 51°13.602 2°56.1 -999 292 10.7 102330 71
2006-04-27 06:33:07 51°13.602 2°56.1 -999 251 10.7 102330 71
2006-04-27 06:33:12 51°13.602 2°56.1 -999 266 10.7 102330 71
2006-04-27 06:33:17 51°13.602 2°56.1 -999 250 10.7 102330 71
2006-04-27 06:33:22 51°13.602 2°56.1 -999 260 10.7 102330 71
2006-04-27 06:33:27 51°13.602 2°56.1 -999 252 10.7 102330 71
2006-04-27 06:33:32 51°13.602 2°56.1 -999 260 10.6 102330 71
2006-04-27 06:33:37 51°13.602 2°56.1 -999 243 10.6 102330 71
2006-04-27 06:33:42 51°13.602 2°56.1 -999 255 10.7 102330 72
2006-04-27 06:33:47 51°13.602 2°56.1 -999 252 10.7 102330 72
2006-04-27 06:33:52 51°13.602 2°56.1 -999 251 10.7 102330 72
2006-04-27 06:33:57 51°13.601 2°56.1 -999 257 10.7 102330 72
2006-04-27 06:34:02 51°13.601 2°56.1 -999 259 10.7 102340 72
2006-04-27 06:34:07 51°13.601 2°56.1 -999 246 10.7 102340 72
2006-04-27 06:34:12 51°13.601 2°56.1 -999 261 10.7 102330 72
2006-04-27 06:34:17 51°13.601 2°56.1 -999 270 10.7 102330 72
2006-04-27 06:34:22 51°13.601 2°56.1 -999 253 10.7 102330 72
2006-04-27 06:34:27 51°13.601 2°56.1 -999 244 10.7 102330 72
2006-04-27 06:34:31 51°13.601 2°56.1 -999 229 10.7 102340 72
2006-04-27 06:34:37 51°13.601 2°56.1 -999 237 10.7 102340 72
2006-04-27 06:34:42 51°13.601 2°56.1 -999 259 10.7 102330 71
2006-04-27 06:34:47 51°13.601 2°56.1 -999 253 10.7 102330 71
2006-04-27 06:34:52 51°13.601 2°56.1 -999 265 10.7 102340 71
2006-04-27 06:34:57 51°13.601 2°56.1 -999 252 10.7 102340 71
2006-04-27 06:35:02 51°13.601 2°56.1 -999 244 10.7 102340 71
2006-04-27 06:35:07 51°13.601 2°56.1 -999 260 10.7 102340 71
2006-04-27 06:35:12 51°13.601 2°56.1 -999 302 10.7 102340 71
2006-04-27 06:35:17 51°13.601 2°56.1 -999 310 10.7 102340 71
2006-04-27 06:35:22 51°13.601 2°56.1 -999 326 10.7 102330 71
2006-04-27 06:35:27 51°13.601 2°56.1 -999 298 10.7 102330 71
2006-04-27 06:35:31 51°13.601 2°56.099 -999 287 10.7 102340 71
2006-04-27 06:35:37 51°13.601 2°56.099 -999 269 10.7 102340 71
2006-04-27 06:35:41 51°13.601 2°56.099 -999 261 10.7 102330 71
2006-04-27 06:35:47 51°13.601 2°56.099 -999 249 10.7 102330 71
2006-04-27 06:35:52 51°13.601 2°56.099 -999 256 10.8 102330 71
2006-04-27 06:35:57 51°13.601 2°56.099 -999 246 10.8 102330 71
2006-04-27 06:36:02 51°13.601 2°56.099 -999 255 10.8 102330 71
2006-04-27 06:36:07 51°13.601 2°56.099 -999 262 10.8 102330 71
2006-04-27 06:36:11 51°13.601 2°56.099 -999 253 10.8 102340 71
2006-04-27 06:36:17 51°13.601 2°56.099 -999 240 10.8 102340 71
2006-04-27 06:36:21 51°13.601 2°56.099 -999 247 10.8 102330 70
2006-04-27 06:36:27 51°13.601 2°56.099 -999 276 10.8 102330 70
2006-04-27 06:36:32 51°13.601 2°56.099 -999 260 10.8 102340 70
2006-04-27 06:36:37 51°13.601 2°56.099 -999 254 10.8 102340 70
2006-04-27 06:36:42 51°13.601 2°56.099 -999 261 10.8 102330 70
2006-04-27 06:36:47 51°13.601 2°56.099 -999 264 10.8 102330 70
2006-04-27 06:36:52 51°13.601 2°56.099 -999 252 10.8 102340 70
2006-04-27 06:36:57 51°13.601 2°56.099 -999 264 10.8 102340 70
2006-04-27 06:37:01 51°13.601 2°56.099 -999 250 10.8 102340 70
2006-04-27 06:37:07 51°13.601 2°56.099 -999 251 10.8 102340 70
2006-04-27 06:37:12 51°13.601 2°56.099 -999 250 10.8 102330 70
2006-04-27 06:37:17 51°13.601 2°56.099 -999 238 10.8 102330 70
2006-04-27 06:37:22 51°13.601 2°56.099 -999 270 10.9 102340 70
2006-04-27 06:37:27 51°13.601 2°56.099 -999 277 10.9 102340 70
2006-04-27 06:37:32 51°13.601 2°56.099 -999 270 10.9 102340 70
2006-04-27 06:37:37 51°13.601 2°56.099 -999 259 10.9 102340 70
2006-04-27 06:37:42 51°13.601 2°56.099 -999 263 10.9 102340 70
2006-04-27 06:37:47 51°13.601 2°56.099 -999 253 10.9 102340 70
2006-04-27 06:37:52 51°13.601 2°56.099 -999 253 10.8 102330 70
2006-04-27 06:37:57 51°13.601 2°56.099 -999 255 10.8 102330 70
2006-04-27 06:38:01 51°13.601 2°56.099 -999 249 10.9 102340 70
2006-04-27 06:38:07 51°13.601 2°56.098 -999 254 10.9 102340 70
2006-04-27 06:38:12 51°13.601 2°56.098 -999 245 10.9 102340 70
2006-04-27 06:38:17 51°13.601 2°56.098 -999 246 10.9 102340 70
2006-04-27 06:38:22 51°13.601 2°56.099 -999 228 10.9 102340 70
2006-04-27 06:38:27 51°13.601 2°56.099 -999 230 10.9 102340 70
2006-04-27 06:38:32 51°13.601 2°56.099 -999 226 10.9 102340 69
2006-04-27 06:38:37 51°13.601 2°56.099 -999 242 10.9 102340 69
2006-04-27 06:38:42 51°13.601 2°56.099 -999 244 10.9 102340 69
2006-04-27 06:38:47 51°13.601 2°56.099 -999 270 10.9 102340 69
2006-04-27 06:38:52 51°13.601 2°56.099 -999 276 10.9 102340 69
2006-04-27 06:38:57 51°13.601 2°56.099 -999 254 10.9 102340 69
2006-04-27 06:39:02 51°13.601 2°56.099 -999 268 10.9 102340 69
2006-04-27 06:39:07 51°13.601 2°56.099 -999 249 10.9 102340 69
2006-04-27 06:39:12 51°13.601 2°56.099 -999 248 10.9 102340 69
2006-04-27 06:39:17 51°13.601 2°56.099 -999 247 10.9 102340 69
2006-04-27 06:39:21 51°13.601 2°56.099 -999 244 10.9 102340 69
2006-04-27 06:39:27 51°13.601 2°56.099 -999 237 10.9 102340 69
2006-04-27 06:39:32 51°13.601 2°56.099 -999 251 10.9 102340 69
2006-04-27 06:39:37 51°13.601 2°56.098 -999 250 10.9 102340 69
2006-04-27 06:39:42 51°13.601 2°56.098 -999 263 10.9 102340 69
2006-04-27 06:39:47 51°13.601 2°56.098 -999 271 10.9 102340 69
2006-04-27 06:39:52 51°13.601 2°56.098 -999 268 10.9 102340 69
2006-04-27 06:39:57 51°13.601 2°56.098 -999 254 10.9 102340 69
2006-04-27 06:40:01 51°13.601 2°56.098 -999 247 10.9 102340 70
2006-04-27 06:40:07 51°13.601 2°56.098 -999 238 10.9 102340 70
2006-04-27 06:40:12 51°13.601 2°56.098 -999 226 10.9 102340 69
2006-04-27 06:40:17 51°13.601 2°56.098 -999 271 10.9 102340 69
2006-04-27 06:40:22 51°13.601 2°56.098 -999 272 10.9 102340 69
2006-04-27 06:40:27 51°13.601 2°56.098 -999 257 10.9 102340 69
2006-04-27 06:40:32 51°13.601 2°56.098 -999 258 11 102340 69
2006-04-27 06:40:37 51°13.602 2°56.098 -999 266 11 102340 69
2006-04-27 06:40:42 51°13.602 2°56.098 -999 252 11 102340 69
2006-04-27 06:40:47 51°13.602 2°56.099 -999 223 11 102340 69
2006-04-27 06:40:52 51°13.602 2°56.098 -999 224 11 102340 69
2006-04-27 06:40:57 51°13.602 2°56.099 -999 228 11 102340 69
2006-04-27 06:41:02 51°13.602 2°56.099 -999 257 11 102340 69
2006-04-27 06:41:07 51°13.602 2°56.099 -999 244 11 102340 69
2006-04-27 06:41:11 51°13.602 2°56.099 -999 235 11 102340 69
2006-04-27 06:41:17 51°13.602 2°56.099 -999 249 11 102340 69
2006-04-27 06:41:21 51°13.601 2°56.099 -999 250 11 102340 69
2006-04-27 06:41:27 51°13.601 2°56.099 -999 247 11 102340 69
2006-04-27 06:41:32 51°13.601 2°56.099 -999 244 11 102340 69
2006-04-27 06:41:37 51°13.601 2°56.099 -999 255 11 102340 69
2006-04-27 06:41:42 51°13.601 2°56.099 -999 235 11 102340 69
2006-04-27 06:41:47 51°13.601 2°56.099 -999 234 11 102340 69
2006-04-27 06:41:52 51°13.601 2°56.099 -999 233 11 102340 69
2006-04-27 06:41:57 51°13.602 2°56.099 -999 247 11 102340 69
2006-04-27 06:42:01 51°13.602 2°56.099 -999 254 11 102340 69
2006-04-27 06:42:07 51°13.602 2°56.099 -999 258 11 102340 69
2006-04-27 06:42:12 51°13.602 2°56.099 -999 252 11 102350 69
2006-04-27 06:42:17 51°13.602 2°56.099 -999 246 11 102350 69
2006-04-27 06:42:22 51°13.602 2°56.099 -999 249 11 102340 70
2006-04-27 06:42:27 51°13.602 2°56.099 -999 242 11 102340 70
2006-04-27 06:42:32 51°13.602 2°56.099 -999 252 11 102350 70
2006-04-27 06:42:37 51°13.602 2°56.099 -999 246 11 102350 70
2006-04-27 06:42:42 51°13.602 2°56.099 -999 233 11 102350 70
2006-04-27 06:42:47 51°13.602 2°56.099 -999 254 11 102350 70
2006-04-27 06:42:52 51°13.602 2°56.099 -999 253 11 102340 69
2006-04-27 06:42:57 51°13.602 2°56.099 -999 244 11 102340 69
2006-04-27 06:43:02 51°13.601 2°56.099 -999 266 11 102350 69
2006-04-27 06:43:07 51°13.601 2°56.099 -999 270 11 102350 69
2006-04-27 06:43:12 51°13.602 2°56.099 -999 253 11 102350 69
2006-04-27 06:43:17 51°13.602 2°56.099 -999 264 11 102350 69
2006-04-27 06:43:21 51°13.602 2°56.099 -999 267 11 102340 69
2006-04-27 06:43:27 51°13.602 2°56.099 -999 273 11 102340 69
2006-04-27 06:43:32 51°13.601 2°56.099 -999 261 11 102340 69
2006-04-27 06:43:37 51°13.601 2°56.099 -999 263 11 102340 69
2006-04-27 06:43:42 51°13.601 2°56.099 -999 261 11 102340 69
2006-04-27 06:43:47 51°13.602 2°56.099 -999 274 11 102340 69
2006-04-27 06:43:52 51°13.602 2°56.099 -999 298 11 102340 69
2006-04-27 06:43:57 51°13.602 2°56.099 -999 260 11 102340 69
2006-04-27 06:44:02 51°13.602 2°56.099 -999 280 11 102340 69
2006-04-27 06:44:07 51°13.602 2°56.099 -999 289 11 102340 69
2006-04-27 06:44:11 51°13.602 2°56.099 -999 279 11 102340 69
2006-04-27 06:44:17 51°13.602 2°56.099 -999 269 11 102340 69
2006-04-27 06:44:21 51°13.602 2°56.099 -999 280 11 102340 69
2006-04-27 06:44:27 51°13.602 2°56.099 -999 273 11 102340 69
2006-04-27 06:44:32 51°13.602 2°56.099 -999 274 11 102340 69
2006-04-27 06:44:37 51°13.602 2°56.099 -999 292 11 102340 69
2006-04-27 06:44:42 51°13.602 2°56.099 -999 275 11 102340 69
2006-04-27 06:44:47 51°13.602 2°56.099 -999 276 11 102340 69
2006-04-27 06:44:52 51°13.602 2°56.099 -999 277 11 102340 69
2006-04-27 06:44:57 51°13.602 2°56.099 -999 263 11 102340 69
2006-04-27 06:45:01 51°13.602 2°56.099 -999 261 11 102340 69
2006-04-27 06:45:07 51°13.602 2°56.099 -999 282 11 102340 69
2006-04-27 06:45:12 51°13.602 2°56.099 -999 283 11 102340 69
2006-04-27 06:45:17 51°13.602 2°56.099 -999 262 11 102340 69
2006-04-27 06:45:22 51°13.602 2°56.099 -999 263 11 102340 69
2006-04-27 06:45:27 51°13.602 2°56.099 -999 273 11 102340 69
2006-04-27 06:45:32 51°13.602 2°56.099 -999 270 11.1 102340 69
2006-04-27 06:45:37 51°13.602 2°56.099 -999 278 11.1 102340 69
2006-04-27 06:45:42 51°13.602 2°56.099 -999 278 11.1 102340 69
2006-04-27 06:45:47 51°13.602 2°56.099 -999 283 11.1 102340 69
2006-04-27 06:45:52 51°13.602 2°56.1 -999 280 11.1 102340 69
2006-04-27 06:45:57 51°13.602 2°56.1 -999 280 11.1 102340 69
2006-04-27 06:46:02 51°13.602 2°56.1 -999 280 11.1 102340 69
2006-04-27 06:46:07 51°13.602 2°56.1 -999 279 11.1 102340 69
2006-04-27 06:46:12 51°13.602 2°56.1 -999 275 11.1 102340 69
2006-04-27 06:46:17 51°13.602 2°56.099 -999 272 11.1 102340 69
2006-04-27 06:46:21 51°13.602 2°56.099 -999 269 11.1 102340 69
2006-04-27 06:46:27 51°13.602 2°56.099 -999 274 11.1 102340 69
2006-04-27 06:46:32 51°13.602 2°56.099 -999 267 11.1 102340 69
2006-04-27 06:46:37 51°13.602 2°56.099 -999 260 11.1 102340 69
2006-04-27 06:46:42 51°13.602 2°56.099 -999 265 11.1 102340 69
2006-04-27 06:46:47 51°13.602 2°56.099 -999 253 11.1 102340 69
2006-04-27 06:46:52 51°13.602 2°56.099 -999 246 11.1 102340 69
2006-04-27 06:46:57 51°13.602 2°56.1 -999 253 11.1 102340 69
2006-04-27 06:47:02 51°13.602 2°56.1 -999 261 11.2 102340 69
2006-04-27 06:47:07 51°13.602 2°56.1 -999 280 11.2 102340 69
2006-04-27 06:47:12 51°13.602 2°56.1 -999 282 11.2 102340 70
2006-04-27 06:47:17 51°13.602 2°56.1 -999 289 11.2 102340 70
2006-04-27 06:47:22 51°13.602 2°56.099 -999 273 11.2 102340 70
2006-04-27 06:47:27 51°13.602 2°56.1 -999 280 11.2 102340 70
2006-04-27 06:47:31 51°13.602 2°56.1 -999 263 11.2 102340 70
2006-04-27 06:47:37 51°13.602 2°56.099 -999 260 11.2 102340 70
2006-04-27 06:47:41 51°13.602 2°56.099 -999 262 11.2 102340 70
2006-04-27 06:47:47 51°13.602 2°56.099 -999 256 11.2 102340 70
2006-04-27 06:47:52 51°13.602 2°56.099 -999 256 11.2 102350 69
2006-04-27 06:47:57 51°13.602 2°56.099 -999 261 11.2 102350 69
2006-04-27 06:48:02 51°13.602 2°56.099 -999 280 11.2 102340 68
2006-04-27 06:48:07 51°13.602 2°56.099 -999 273 11.2 102340 68
2006-04-27 06:48:11 51°13.601 2°56.099 -999 275 11.2 102340 68
2006-04-27 06:48:17 51°13.601 2°56.099 -999 280 11.2 102340 68
2006-04-27 06:48:21 51°13.601 2°56.099 -999 299 11.2 102340 68
2006-04-27 06:48:27 51°13.601 2°56.099 -999 230 11.2 102340 68
2006-04-27 06:48:32 51°13.601 2°56.099 -999 272 11.2 102340 68
2006-04-27 06:48:37 51°13.601 2°56.099 -999 262 11.2 102340 68
2006-04-27 06:48:42 51°13.601 2°56.099 -999 256 11.2 102340 68
2006-04-27 06:48:47 51°13.601 2°56.099 -999 262 11.2 102340 68
2006-04-27 06:48:52 51°13.601 2°56.099 -999 276 11.2 102340 68
2006-04-27 06:48:57 51°13.601 2°56.099 -999 286 11.2 102340 68
2006-04-27 06:49:01 51°13.601 2°56.099 -999 297 11.2 102340 68
2006-04-27 06:49:07 51°13.601 2°56.099 -999 302 11.2 102340 68
2006-04-27 06:49:12 51°13.601 2°56.099 -999 281 11.2 102340 67
2006-04-27 06:49:17 51°13.601 2°56.1 -999 273 11.2 102340 67
2006-04-27 06:49:22 51°13.601 2°56.099 -999 271 11.2 102340 67
2006-04-27 06:49:27 51°13.601 2°56.099 -999 289 11.2 102340 67
2006-04-27 06:49:32 51°13.601 2°56.099 -999 255 11.2 102340 67
2006-04-27 06:49:37 51°13.601 2°56.099 -999 266 11.2 102340 67
2006-04-27 06:49:41 51°13.601 2°56.1 -999 266 11.2 102340 67
2006-04-27 06:49:47 51°13.601 2°56.1 -999 267 11.2 102340 67
2006-04-27 06:49:52 51°13.601 2°56.1 -999 251 11.2 102340 68
2006-04-27 06:49:57 51°13.601 2°56.1 -999 284 11.2 102340 68
2006-04-27 06:50:02 51°13.601 2°56.1 -999 280 11.2 102340 68
2006-04-27 06:50:07 51°13.601 2°56.099 -999 278 11.2 102340 68
2006-04-27 06:50:12 51°13.601 2°56.099 -999 264 11.2 102340 68
2006-04-27 06:50:17 51°13.602 2°56.097 -999 276 11.2 102340 68
2006-04-27 06:50:22 51°13.602 2°56.096 -999 282 11.2 102340 68
2006-04-27 06:50:27 51°13.603 2°56.094 -999 255 11.2 102340 68
2006-04-27 06:50:32 51°13.603 2°56.091 -999 268 11.2 102340 68
2006-04-27 06:50:37 51°13.604 2°56.087 -999 252 11.2 102340 68
2006-04-27 06:50:41 51°13.604 2°56.084 -999 253 11.2 102340 68
2006-04-27 06:50:47 51°13.605 2°56.079 -999 240 11.2 102340 68
2006-04-27 06:50:52 51°13.607 2°56.074 -999 240 11.2 102340 68
2006-04-27 06:50:57 51°13.608 2°56.069 -999 233 11.2 102340 68
2006-04-27 06:51:02 51°13.609 2°56.063 -999 236 11.2 102340 68
2006-04-27 06:51:07 51°13.611 2°56.057 -999 236 11.2 102340 68
2006-04-27 06:51:12 51°13.613 2°56.05 -999 244 11.2 102340 68
2006-04-27 06:51:17 51°13.614 2°56.043 -999 248 11.2 102340 68
2006-04-27 06:51:22 51°13.616 2°56.036 -999 256 11.2 102340 68
2006-04-27 06:51:27 51°13.618 2°56.028 -999 250 11.2 102340 68
2006-04-27 06:51:32 51°13.62 2°56.02 -999 260 11.1 102340 68
2006-04-27 06:51:37 51°13.623 2°56.012 -999 240 11.1 102340 68
2006-04-27 06:51:42 51°13.625 2°56.003 -999 223 11.1 102340 68
2006-04-27 06:51:47 51°13.627 2°55.994 -999 230 11.1 102340 68
2006-04-27 06:51:52 51°13.629 2°55.985 -999 226 11.1 102340 68
2006-04-27 06:51:57 51°13.631 2°55.976 -999 237 11.1 102340 68
2006-04-27 06:52:01 51°13.633 2°55.969 -999 229 11.1 102340 68
2006-04-27 06:52:07 51°13.635 2°55.958 -999 228 11.1 102340 68
2006-04-27 06:52:12 51°13.637 2°55.949 -999 238 11 102340 68
2006-04-27 06:52:17 51°13.639 2°55.94 -999 193 11 102340 68
2006-04-27 06:52:22 51°13.642 2°55.931 -999 228 11 102340 68
2006-04-27 06:52:27 51°13.644 2°55.922 -999 214 11 102340 68
2006-04-27 06:52:32 51°13.646 2°55.913 -999 210 11 102340 68
2006-04-27 06:52:37 51°13.649 2°55.904 -999 210 11 102340 68
2006-04-27 06:52:41 51°13.652 2°55.897 -999 230 11 102340 69
2006-04-27 06:52:47 51°13.655 2°55.887 -999 215 11 102340 69
2006-04-27 06:52:52 51°13.659 2°55.878 -999 227 11 102340 69
2006-04-27 06:52:57 51°13.662 2°55.869 -999 237 11 102340 69
2006-04-27 06:53:01 51°13.665 2°55.862 -999 225 10.9 102340 69
2006-04-27 06:53:07 51°13.67 2°55.851 -999 226 10.9 102340 69
2006-04-27 06:53:12 51°13.674 2°55.842 -999 219 10.9 102340 68
2006-04-27 06:53:17 51°13.678 2°55.834 -999 201 10.9 102340 68
2006-04-27 06:53:21 51°13.682 2°55.827 -999 209 10.9 102350 68
2006-04-27 06:53:27 51°13.687 2°55.817 -999 217 10.9 102350 68
2006-04-27 06:53:32 51°13.691 2°55.81 -999 203 10.8 102340 69
2006-04-27 06:53:37 51°13.695 2°55.802 -999 209 10.8 102340 69
2006-04-27 06:53:42 51°13.699 2°55.795 -999 227 10.8 102340 69
2006-04-27 06:53:47 51°13.702 2°55.788 -999 204 10.8 102340 69
2006-04-27 06:53:52 51°13.706 2°55.781 -999 215 10.8 102340 70
2006-04-27 06:53:57 51°13.71 2°55.773 -999 223 10.8 102340 70
2006-04-27 06:54:01 51°13.713 2°55.767 -999 225 10.8 102340 70
2006-04-27 06:54:07 51°13.717 2°55.758 -999 236 10.8 102340 70
2006-04-27 06:54:12 51°13.72 2°55.751 -999 237 10.7 102340 70
2006-04-27 06:54:17 51°13.723 2°55.744 -999 239 10.7 102340 70
2006-04-27 06:54:22 51°13.725 2°55.737 -999 221 10.7 102340 70
2006-04-27 06:54:27 51°13.727 2°55.731 -999 231 10.7 102340 70
2006-04-27 06:54:32 51°13.729 2°55.725 -999 234 10.7 102350 71
2006-04-27 06:54:37 51°13.731 2°55.72 -999 246 10.7 102350 71
2006-04-27 06:54:41 51°13.732 2°55.717 -999 264 10.7 102340 71
2006-04-27 06:54:47 51°13.733 2°55.714 -999 258 10.7 102340 71
2006-04-27 06:54:52 51°13.733 2°55.713 -999 276 10.7 102340 71
2006-04-27 06:54:57 51°13.734 2°55.712 -999 272 10.7 102340 71
2006-04-27 06:55:01 51°13.734 2°55.713 -999 269 10.7 102340 71
2006-04-27 06:55:07 51°13.734 2°55.714 -999 292 10.7 102340 71
2006-04-27 06:55:12 51°13.734 2°55.716 -999 299 10.6 102340 72
2006-04-27 06:55:17 51°13.734 2°55.718 -999 284 10.6 102340 72
2006-04-27 06:55:22 51°13.735 2°55.72 -999 294 10.6 102340 72
2006-04-27 06:55:27 51°13.735 2°55.721 -999 278 10.6 102340 72
2006-04-27 06:55:32 51°13.735 2°55.721 -999 277 10.7 102340 72
2006-04-27 06:55:37 51°13.734 2°55.721 -999 315 10.7 102340 72
2006-04-27 06:55:41 51°13.734 2°55.72 -999 229 10.7 102340 72
2006-04-27 06:55:47 51°13.732 2°55.717 -999 295 10.7 102340 72
2006-04-27 06:55:51 51°13.731 2°55.716 -999 264 10.7 102340 73
2006-04-27 06:55:57 51°13.73 2°55.713 -999 282 10.7 102340 73
2006-04-27 06:56:01 51°13.729 2°55.712 -999 275 10.7 102340 73
2006-04-27 06:56:07 51°13.728 2°55.71 -999 319 10.7 102340 73
2006-04-27 06:56:12 51°13.726 2°55.708 -999 334 10.7 102340 73
2006-04-27 06:56:17 51°13.725 2°55.708 -999 312 10.7 102340 73
2006-04-27 06:56:21 51°13.725 2°55.707 -999 293 10.7 102340 73
2006-04-27 06:56:27 51°13.725 2°55.707 -999 317 10.7 102340 73
2006-04-27 06:56:32 51°13.725 2°55.707 -999 311 10.7 102340 73
2006-04-27 06:56:37 51°13.726 2°55.708 -999 332 10.7 102340 73
2006-04-27 06:56:42 51°13.727 2°55.709 -999 330 10.8 102340 73
2006-04-27 06:56:47 51°13.729 2°55.71 -999 340 10.8 102340 73
2006-04-27 06:56:52 51°13.731 2°55.711 -999 6 10.8 102340 73
2006-04-27 06:56:57 51°13.734 2°55.712 -999 357 10.8 102340 73
2006-04-27 06:57:02 51°13.737 2°55.712 -999 8 10.8 102340 73
2006-04-27 06:57:07 51°13.74 2°55.713 -999 9 10.8 102340 73
2006-04-27 06:57:12 51°13.743 2°55.712 -999 21 10.8 102340 73
2006-04-27 06:57:17 51°13.747 2°55.71 -999 27 10.8 102340 73
2006-04-27 06:57:20 51°13.75 2°55.709 -999 25 10.8 102340 73
2006-04-27 06:57:27 51°13.756 2°55.705 -999 33 10.8 102340 73
2006-04-27 06:57:32 51°13.761 2°55.701 -999 13 10.8 102340 72
2006-04-27 06:57:37 51°13.767 2°55.696 -999 38 10.8 102340 72
2006-04-27 06:57:41 51°13.771 2°55.691 -999 29 10.7 102340 71
2006-04-27 06:57:47 51°13.779 2°55.684 -999 28 10.7 102340 71
2006-04-27 06:57:50 51°13.783 2°55.681 -999 34 10.7 102340 71
2006-04-27 06:57:57 51°13.789 2°55.675 -999 28 10.7 102340 71
2006-04-27 06:58:01 51°13.799 2°55.666 -999 31 10.7 102340 71
2006-04-27 06:58:07 51°13.808 2°55.658 -999 33 10.7 102340 71
2006-04-27 06:58:11 51°13.815 2°55.652 -999 31 10.7 102340 71
2006-04-27 06:58:16 51°13.823 2°55.645 -999 19 10.7 102340 71
2006-04-27 06:58:21 51°13.832 2°55.638 -999 21 10.6 102340 71
2006-04-27 06:58:26 51°13.841 2°55.631 -999 16 10.6 102340 71
2006-04-27 06:58:32 51°13.851 2°55.622 -999 25 10.6 102340 72
2006-04-27 06:58:37 51°13.861 2°55.615 -999 23 10.6 102340 72
2006-04-27 06:58:41 51°13.868 2°55.609 -999 20 10.6 102340 72
2006-04-27 06:58:47 51°13.879 2°55.601 -999 25 10.6 102340 72
2006-04-27 06:58:52 51°13.889 2°55.594 -999 25 10.6 102340 73
2006-04-27 06:58:57 51°13.899 2°55.587 -999 30 10.6 102340 73
2006-04-27 06:59:01 51°13.906 2°55.581 -999 28 10.6 102340 73
2006-04-27 06:59:07 51°13.919 2°55.573 -999 34 10.6 102340 73
2006-04-27 06:59:12 51°13.928 2°55.565 -999 34 10.5 102340 73
2006-04-27 06:59:17 51°13.938 2°55.558 -999 29 10.5 102340 73
2006-04-27 06:59:21 51°13.946 2°55.553 -999 31 10.5 102340 74
2006-04-27 06:59:27 51°13.959 2°55.544 -999 22 10.5 102340 74
2006-04-27 06:59:32 51°13.969 2°55.537 -999 24 10.5 102340 74
2006-04-27 06:59:37 51°13.979 2°55.53 -999 27 10.5 102340 74
2006-04-27 06:59:41 51°13.987 2°55.524 -999 27 10.5 102330 74
2006-04-27 06:59:47 51°13.999 2°55.516 -999 19 10.5 102330 74
2006-04-27 06:59:52 51°14.01 2°55.509 -999 22 10.5 102340 74
2006-04-27 06:59:57 51°14.02 2°55.502 -999 27 10.5 102340 74
2006-04-27 07:00:01 51°14.028 2°55.496 -999 22 10.4 102340 74
2006-04-27 07:00:07 51°14.04 2°55.487 -999 28 10.4 102340 74
2006-04-27 07:00:12 51°14.05 2°55.48 -999 22 10.5 102340 74
2006-04-27 07:00:17 51°14.061 2°55.472 -999 26 10.5 102340 74
2006-04-27 07:00:22 51°14.071 2°55.465 -999 19 10.4 102330 74
2006-04-27 07:00:27 51°14.081 2°55.457 -999 24 10.4 102330 74
2006-04-27 07:00:32 51°14.091 2°55.449 -999 25 10.4 102330 74
2006-04-27 07:00:37 51°14.102 2°55.441 -999 26 10.4 102330 74
2006-04-27 07:00:41 51°14.11 2°55.435 -999 26 10.4 102340 74
2006-04-27 07:00:47 51°14.122 2°55.425 -999 27 10.4 102340 74
2006-04-27 07:00:52 51°14.132 2°55.417 -999 27 10.4 102340 74
2006-04-27 07:00:57 51°14.142 2°55.408 -999 25 10.4 102340 74
2006-04-27 07:01:01 51°14.149 2°55.4 -999 26 10.4 102340 74
2006-04-27 07:01:07 51°14.161 2°55.389 -999 26 10.4 102340 74
2006-04-27 07:01:12 51°14.171 2°55.38 -999 27 10.4 102340 74
2006-04-27 07:01:17 51°14.181 2°55.37 -999 26 10.4 102340 74
2006-04-27 07:01:21 51°14.189 2°55.361 -999 31 10.4 102340 74
2006-04-27 07:01:27 51°14.201 2°55.348 -999 30 10.4 102340 74
2006-04-27 07:01:32 51°14.211 2°55.337 -999 31 10.4 102340 75
2006-04-27 07:01:37 51°14.22 2°55.326 -999 34 10.4 102340 75
2006-04-27 07:01:41 51°14.228 2°55.317 -999 31 10.4 102340 75
2006-04-27 07:01:47 51°14.238 2°55.301 -999 24 10.4 102340 75
2006-04-27 07:01:52 51°14.247 2°55.288 -999 19 10.4 102340 75
2006-04-27 07:01:57 51°14.256 2°55.275 -999 39 10.4 102340 75
2006-04-27 07:02:01 51°14.262 2°55.263 -999 30 10.4 102340 75
2006-04-27 07:02:07 51°14.271 2°55.245 -999 29 10.4 102340 75
2006-04-27 07:02:12 51°14.279 2°55.23 -999 39 10.4 102340 75
2006-04-27 07:02:17 51°14.286 2°55.215 -999 33 10.4 102340 75
2006-04-27 07:02:22 51°14.294 2°55.2 -999 38 10.3 102340 76
2006-04-27 07:02:27 51°14.301 2°55.184 -999 33 10.3 102340 76
2006-04-27 07:02:32 51°14.308 2°55.168 -999 33 10.3 102340 76
2006-04-27 07:02:37 51°14.316 2°55.153 -999 36 10.3 102340 76
2006-04-27 07:02:41 51°14.322 2°55.141 -999 29 10.3 102340 76
2006-04-27 07:02:47 51°14.331 2°55.123 -999 24 10.3 102340 76
2006-04-27 07:02:52 51°14.339 2°55.108 -999 19 10.3 102340 76
2006-04-27 07:02:57 51°14.347 2°55.093 -999 37 10.3 102340 76
2006-04-27 07:03:02 51°14.356 2°55.078 -999 39 10.3 102340 77
2006-04-27 07:03:07 51°14.364 2°55.064 -999 40 10.3 102340 77
2006-04-27 07:03:12 51°14.373 2°55.051 -999 38 10.3 102340 77
2006-04-27 07:03:17 51°14.382 2°55.037 -999 39 10.3 102340 77
2006-04-27 07:03:21 51°14.39 2°55.026 -999 37 10.2 102340 76
2006-04-27 07:03:27 51°14.4 2°55.008 -999 33 10.2 102340 76
2006-04-27 07:03:29 51°14.404 2°55.002 -999 32 10.2 102340 76
2006-04-27 07:03:37 51°14.42 2°54.977 -999 32 10.2 102340 76
2006-04-27 07:03:42 51°14.43 2°54.962 -999 32 10.2 102340 76
2006-04-27 07:03:47 51°14.442 2°54.948 -999 28 10.2 102340 76
2006-04-27 07:03:51 51°14.451 2°54.936 -999 26 10.2 102330 76
2006-04-27 07:03:57 51°14.464 2°54.918 -999 27 10.2 102330 76
2006-04-27 07:04:01 51°14.474 2°54.906 -999 28 10.2 102330 76
2006-04-27 07:04:07 51°14.489 2°54.888 -999 25 10.2 102330 76
2006-04-27 07:04:12 51°14.501 2°54.874 -999 26 10.2 102330 77
2006-04-27 07:04:16 51°14.512 2°54.863 -999 27 10.2 102330 77
2006-04-27 07:04:20 51°14.523 2°54.851 -999 28 10.2 102340 77
2006-04-27 07:04:27 51°14.541 2°54.83 -999 28 10.2 102340 77
2006-04-27 07:04:32 51°14.555 2°54.816 -999 26 10.2 102340 77
2006-04-27 07:04:37 51°14.569 2°54.802 -999 22 10.2 102340 77
2006-04-27 07:04:41 51°14.581 2°54.792 -999 26 10.2 102330 76
2006-04-27 07:04:47 51°14.598 2°54.777 -999 24 10.2 102330 76
2006-04-27 07:04:52 51°14.612 2°54.763 -999 25 10.2 102330 76
2006-04-27 07:04:57 51°14.627 2°54.749 -999 23 10.2 102330 76
2006-04-27 07:05:02 51°14.641 2°54.735 -999 24 10.2 102330 76
2006-04-27 07:05:07 51°14.656 2°54.722 -999 23 10.2 102330 76
2006-04-27 07:05:12 51°14.671 2°54.708 -999 24 10.2 102330 76
2006-04-27 07:05:16 51°14.683 2°54.698 -999 23 10.2 102330 76
2006-04-27 07:05:22 51°14.7 2°54.681 -999 23 10.2 102330 76
2006-04-27 07:05:27 51°14.715 2°54.669 -999 22 10.2 102330 76
2006-04-27 07:05:32 51°14.73 2°54.657 -999 25 10.2 102330 76
2006-04-27 07:05:36 51°14.743 2°54.648 -999 25 10.2 102330 76
2006-04-27 07:05:40 51°14.755 2°54.639 -999 24 10.2 102330 76
2006-04-27 07:05:47 51°14.777 2°54.624 -999 25 10.2 102330 76
2006-04-27 07:05:52 51°14.793 2°54.613 -999 25 10.2 102330 76
2006-04-27 07:05:57 51°14.808 2°54.602 -999 25 10.2 102330 76
2006-04-27 07:06:01 51°14.821 2°54.592 -999 23 10.2 102330 76
2006-04-27 07:06:07 51°14.839 2°54.579 -999 24 10.2 102330 76
2006-04-27 07:06:12 51°14.855 2°54.569 -999 25 10.3 102330 76
2006-04-27 07:06:17 51°14.871 2°54.558 -999 25 10.3 102330 76
2006-04-27 07:06:21 51°14.883 2°54.548 -999 25 10.3 102330 76
2006-04-27 07:06:27 51°14.901 2°54.534 -999 24 10.3 102330 76
2006-04-27 07:06:31 51°14.913 2°54.524 -999 24 10.3 102330 76
2006-04-27 07:06:37 51°14.931 2°54.508 -999 24 10.3 102330 76
2006-04-27 07:06:41 51°14.943 2°54.498 -999 24 10.3 102330 76
2006-04-27 07:06:47 51°14.961 2°54.482 -999 24 10.3 102330 76
2006-04-27 07:06:51 51°14.973 2°54.471 -999 24 10.3 102330 75
2006-04-27 07:06:57 51°14.99 2°54.453 -999 24 10.3 102330 75
2006-04-27 07:07:01 51°15.001 2°54.44 -999 25 10.3 102330 75
2006-04-27 07:07:07 51°15.017 2°54.42 -999 27 10.3 102330 75
2006-04-27 07:07:12 51°15.03 2°54.403 -999 30 10.3 102330 75
2006-04-27 07:07:17 51°15.042 2°54.386 -999 29 10.3 102330 75
2006-04-27 07:07:21 51°15.053 2°54.372 -999 29 10.3 102330 75
2006-04-27 07:07:27 51°15.068 2°54.351 -999 29 10.3 102330 75
2006-04-27 07:07:32 51°15.081 2°54.333 -999 24 10.3 102330 75
2006-04-27 07:07:37 51°15.093 2°54.315 -999 26 10.3 102330 75
2006-04-27 07:07:41 51°15.104 2°54.301 -999 24 10.3 102340 75
2006-04-27 07:07:47 51°15.119 2°54.28 -999 27 10.3 102340 75
2006-04-27 07:07:52 51°15.132 2°54.263 -999 27 10.3 102330 75
2006-04-27 07:07:57 51°15.146 2°54.247 -999 26 10.3 102330 75
2006-04-27 07:08:02 51°15.16 2°54.231 -999 22 10.3 102340 75
2006-04-27 07:08:07 51°15.175 2°54.216 -999 23 10.3 102340 75
2006-04-27 07:08:11 51°15.186 2°54.205 -999 21 10.3 102330 75
2006-04-27 07:08:17 51°15.204 2°54.19 -999 22 10.3 102330 75
2006-04-27 07:08:21 51°15.216 2°54.18 -999 20 10.3 102340 75
2006-04-27 07:08:27 51°15.234 2°54.167 -999 18 10.3 102340 75
2006-04-27 07:08:31 51°15.247 2°54.158 -999 21 10.3 102330 75
2006-04-27 07:08:37 51°15.265 2°54.144 -999 20 10.3 102330 75
2006-04-27 07:08:40 51°15.274 2°54.138 -999 21 10.4 102330 75
2006-04-27 07:08:47 51°15.296 2°54.121 -999 20 10.4 102330 75
2006-04-27 07:08:52 51°15.311 2°54.108 -999 20 10.4 102340 75
2006-04-27 07:08:57 51°15.326 2°54.096 -999 20 10.4 102340 75
2006-04-27 07:09:02 51°15.341 2°54.081 -999 21 10.4 102330 75
2006-04-27 07:09:07 51°15.355 2°54.066 -999 25 10.4 102330 75
2006-04-27 07:09:12 51°15.369 2°54.05 -999 25 10.4 102340 75
2006-04-27 07:09:17 51°15.384 2°54.033 -999 20 10.4 102340 75
2006-04-27 07:09:21 51°15.395 2°54.02 -999 24 10.4 102330 75
2006-04-27 07:09:27 51°15.412 2°54 -999 26 10.4 102330 75
2006-04-27 07:09:32 51°15.426 2°53.983 -999 23 10.4 102330 75
2006-04-27 07:09:37 51°15.441 2°53.967 -999 23 10.4 102330 75
2006-04-27 07:09:41 51°15.452 2°53.954 -999 26 10.4 102330 75
2006-04-27 07:09:47 51°15.47 2°53.935 -999 22 10.4 102330 75
2006-04-27 07:09:52 51°15.484 2°53.919 -999 22 10.4 102330 75
2006-04-27 07:09:56 51°15.496 2°53.906 -999 23 10.4 102330 75
2006-04-27 07:10:01 51°15.51 2°53.89 -999 24 10.4 102330 75
2006-04-27 07:10:07 51°15.528 2°53.871 -999 22 10.4 102330 75
2006-04-27 07:10:12 51°15.542 2°53.856 -999 25 10.4 102340 75
2006-04-27 07:10:17 51°15.557 2°53.84 -999 22 10.4 102340 75
2006-04-27 07:10:22 51°15.572 2°53.825 -999 26 10.4 102340 75
2006-04-27 07:10:27 51°15.586 2°53.809 -999 25 10.4 102340 75
2006-04-27 07:10:31 51°15.598 2°53.796 -999 26 10.4 102330 75
2006-04-27 07:10:37 51°15.616 2°53.777 -999 21 10.4 102330 75
2006-04-27 07:10:41 51°15.627 2°53.765 -999 25 10.4 102330 75
2006-04-27 07:10:47 51°15.645 2°53.746 -999 25 10.4 102330 75
2006-04-27 07:10:52 51°15.659 2°53.73 -999 23 10.3 102330 74
2006-04-27 07:10:56 51°15.671 2°53.717 -999 25 10.3 102330 74
2006-04-27 07:11:00 51°15.682 2°53.704 -999 26 10.4 102330 74
2006-04-27 07:11:07 51°15.702 2°53.68 -999 26 10.4 102330 74
2006-04-27 07:11:11 51°15.713 2°53.666 -999 25 10.4 102330 74
2006-04-27 07:11:17 51°15.73 2°53.646 -999 25 10.4 102330 74
2006-04-27 07:11:21 51°15.742 2°53.633 -999 24 10.4 102340 73
2006-04-27 07:11:26 51°15.757 2°53.618 -999 26 10.4 102340 73
2006-04-27 07:11:31 51°15.771 2°53.602 -999 21 10.4 102330 73
2006-04-27 07:11:37 51°15.789 2°53.584 -999 22 10.4 102330 73
2006-04-27 07:11:40 51°15.797 2°53.575 -999 20 10.4 102340 73
2006-04-27 07:11:47 51°15.818 2°53.554 -999 21 10.4 102340 73
2006-04-27 07:11:51 51°15.83 2°53.542 -999 26 10.4 102330 73
2006-04-27 07:11:56 51°15.844 2°53.526 -999 26 10.4 102330 73
2006-04-27 07:12:00 51°15.855 2°53.512 -999 26 10.4 102330 74
2006-04-27 07:12:07 51°15.875 2°53.487 -999 24 10.4 102330 74
2006-04-27 07:12:12 51°15.888 2°53.469 -999 26 10.4 102330 74
2006-04-27 07:12:17 51°15.902 2°53.45 -999 22 10.4 102330 74
2006-04-27 07:12:22 51°15.915 2°53.431 -999 22 10.4 102330 73
2006-04-27 07:12:27 51°15.929 2°53.413 -999 22 10.4 102330 73
2006-04-27 07:12:32 51°15.943 2°53.396 -999 25 10.4 102330 73
2006-04-27 07:12:37 51°15.957 2°53.378 -999 21 10.4 102330 73
2006-04-27 07:12:42 51°15.971 2°53.36 -999 23 10.4 102340 73
2006-04-27 07:12:47 51°15.984 2°53.342 -999 26 10.4 102340 73
2006-04-27 07:12:51 51°15.996 2°53.328 -999 24 10.4 102330 73
2006-04-27 07:12:57 51°16.012 2°53.307 -999 22 10.4 102330 73
2006-04-27 07:13:01 51°16.024 2°53.294 -999 22 10.4 102330 73
2006-04-27 07:13:07 51°16.041 2°53.273 -999 20 10.4 102330 73
2006-04-27 07:13:12 51°16.056 2°53.258 -999 24 10.4 102330 73
2006-04-27 07:13:16 51°16.067 2°53.246 -999 23 10.4 102330 73
2006-04-27 07:13:20 51°16.079 2°53.233 -999 24 10.4 102330 74
2006-04-27 07:13:27 51°16.1 2°53.213 -999 24 10.4 102330 74
2006-04-27 07:13:32 51°16.115 2°53.197 -999 22 10.4 102330 74
2006-04-27 07:13:37 51°16.13 2°53.182 -999 22 10.4 102330 74
2006-04-27 07:13:40 51°16.139 2°53.173 -999 23 10.4 102330 74
2006-04-27 07:13:47 51°16.16 2°53.152 -999 23 10.4 102330 74
2006-04-27 07:13:52 51°16.176 2°53.138 -999 22 10.4 102340 74
2006-04-27 07:13:57 51°16.191 2°53.124 -999 21 10.4 102340 74
2006-04-27 07:14:00 51°16.2 2°53.116 -999 21 10.4 102340 74
2006-04-27 07:14:07 51°16.222 2°53.096 -999 21 10.4 102340 74
2006-04-27 07:14:12 51°16.237 2°53.083 -999 24 10.4 102340 74
2006-04-27 07:14:17 51°16.253 2°53.069 -999 19 10.4 102340 74
2006-04-27 07:14:21 51°16.265 2°53.058 -999 21 10.4 102330 74
2006-04-27 07:14:27 51°16.284 2°53.04 -999 22 10.4 102330 74
2006-04-27 07:14:32 51°16.299 2°53.025 -999 23 10.4 102340 74
2006-04-27 07:14:37 51°16.314 2°53.01 -999 23 10.4 102340 74
2006-04-27 07:14:41 51°16.326 2°52.998 -999 21 10.4 102340 74
2006-04-27 07:14:47 51°16.344 2°52.98 -999 19 10.4 102340 74
2006-04-27 07:14:52 51°16.36 2°52.966 -999 22 10.4 102340 74
2006-04-27 07:14:57 51°16.375 2°52.952 -999 21 10.4 102340 74
2006-04-27 07:15:02 51°16.391 2°52.938 -999 22 10.4 102330 73
2006-04-27 07:15:07 51°16.407 2°52.926 -999 24 10.4 102330 73
2006-04-27 07:15:12 51°16.422 2°52.914 -999 24 10.4 102340 73
2006-04-27 07:15:17 51°16.439 2°52.902 -999 24 10.4 102340 73
2006-04-27 07:15:21 51°16.451 2°52.893 -999 24 10.4 102330 74
2006-04-27 07:15:27 51°16.47 2°52.878 -999 23 10.4 102330 74
2006-04-27 07:15:32 51°16.485 2°52.866 -999 23 10.4 102330 73
2006-04-27 07:15:37 51°16.501 2°52.853 -999 22 10.4 102330 73
2006-04-27 07:15:41 51°16.513 2°52.843 -999 25 10.4 102330 73
2006-04-27 07:15:47 51°16.532 2°52.828 -999 23 10.4 102330 73
2006-04-27 07:15:52 51°16.548 2°52.815 -999 26 10.4 102340 74
2006-04-27 07:15:57 51°16.563 2°52.803 -999 21 10.4 102340 74
2006-04-27 07:16:01 51°16.576 2°52.793 -999 24 10.4 102340 74
2006-04-27 07:16:07 51°16.595 2°52.779 -999 24 10.4 102340 74
2006-04-27 07:16:11 51°16.607 2°52.77 -999 25 10.4 102340 74
2006-04-27 07:16:17 51°16.625 2°52.754 -999 24 10.4 102340 74
2006-04-27 07:16:21 51°16.637 2°52.744 -999 25 10.4 102340 73
2006-04-27 07:16:27 51°16.655 2°52.728 -999 25 10.4 102340 73
2006-04-27 07:16:31 51°16.667 2°52.716 -999 25 10.4 102340 73
2006-04-27 07:16:36 51°16.682 2°52.703 -999 25 10.4 102340 73
2006-04-27 07:16:40 51°16.694 2°52.691 -999 26 10.4 102340 73
2006-04-27 07:16:47 51°16.714 2°52.672 -999 23 10.4 102340 73
2006-04-27 07:16:51 51°16.726 2°52.66 -999 24 10.4 102340 73
2006-04-27 07:16:57 51°16.743 2°52.642 -999 22 10.4 102340 73
2006-04-27 07:17:02 51°16.757 2°52.628 -999 25 10.3 102340 73
2006-04-27 07:17:07 51°16.771 2°52.614 -999 22 10.3 102340 73
2006-04-27 07:17:11 51°16.783 2°52.604 -999 22 10.4 102340 73
2006-04-27 07:17:17 51°16.8 2°52.589 -999 23 10.4 102340 73
2006-04-27 07:17:21 51°16.812 2°52.579 -999 21 10.4 102340 74
2006-04-27 07:17:27 51°16.831 2°52.565 -999 23 10.4 102340 74
2006-04-27 07:17:32 51°16.846 2°52.554 -999 22 10.4 102340 74
2006-04-27 07:17:36 51°16.858 2°52.546 -999 21 10.4 102340 74
2006-04-27 07:17:40 51°16.87 2°52.537 -999 21 10.4 102340 74
2006-04-27 07:17:47 51°16.892 2°52.524 -999 21 10.4 102340 74
2006-04-27 07:17:52 51°16.908 2°52.514 -999 20 10.4 102340 73
2006-04-27 07:17:57 51°16.923 2°52.506 -999 19 10.4 102340 73
2006-04-27 07:18:00 51°16.933 2°52.5 -999 19 10.4 102340 73
2006-04-27 07:18:07 51°16.955 2°52.488 -999 17 10.4 102340 73
2006-04-27 07:18:12 51°16.971 2°52.479 -999 19 10.4 102340 74
2006-04-27 07:18:17 51°16.986 2°52.471 -999 18 10.4 102340 74
2006-04-27 07:18:20 51°16.995 2°52.467 -999 20 10.4 102340 74
2006-04-27 07:18:27 51°17.018 2°52.457 -999 18 10.4 102340 74
2006-04-27 07:18:32 51°17.034 2°52.451 -999 20 10.4 102340 74
2006-04-27 07:18:37 51°17.05 2°52.444 -999 15 10.4 102340 74
2006-04-27 07:18:42 51°17.066 2°52.439 -999 18 10.4 102340 74
2006-04-27 07:18:47 51°17.082 2°52.433 -999 17 10.4 102340 74
2006-04-27 07:18:52 51°17.098 2°52.428 -999 17 10.4 102340 74
2006-04-27 07:18:57 51°17.115 2°52.423 -999 17 10.4 102340 74
2006-04-27 07:19:01 51°17.127 2°52.418 -999 17 10.4 102350 74
2006-04-27 07:19:07 51°17.147 2°52.411 -999 18 10.4 102350 74
2006-04-27 07:19:12 51°17.163 2°52.403 -999 19 10.4 102340 74
2006-04-27 07:19:17 51°17.178 2°52.395 -999 21 10.4 102340 74
2006-04-27 07:19:22 51°17.194 2°52.385 -999 20 10.4 102340 74
2006-04-27 07:19:27 51°17.21 2°52.375 -999 21 10.4 102340 74
2006-04-27 07:19:31 51°17.222 2°52.366 -999 21 10.4 102340 74
2006-04-27 07:19:37 51°17.241 2°52.353 -999 18 10.4 102340 74
2006-04-27 07:19:41 51°17.253 2°52.345 -999 19 10.4 102340 74
2006-04-27 07:19:47 51°17.271 2°52.332 -999 17 10.4 102340 74
2006-04-27 07:19:52 51°17.286 2°52.321 -999 16 10.4 102340 73
2006-04-27 07:19:56 51°17.299 2°52.314 -999 17 10.4 102340 73
2006-04-27 07:20:00 51°17.312 2°52.306 -999 16 10.4 102350 74
2006-04-27 07:20:07 51°17.334 2°52.294 -999 18 10.4 102350 74
2006-04-27 07:20:12 51°17.35 2°52.285 -999 18 10.4 102340 74
2006-04-27 07:20:17 51°17.365 2°52.276 -999 18 10.4 102340 74
2006-04-27 07:20:21 51°17.378 2°52.269 -999 19 10.4 102340 73
2006-04-27 07:20:27 51°17.397 2°52.257 -999 23 10.4 102340 73
2006-04-27 07:20:32 51°17.412 2°52.245 -999 21 10.4 102340 73
2006-04-27 07:20:36 51°17.424 2°52.235 -999 24 10.4 102340 73
2006-04-27 07:20:41 51°17.439 2°52.222 -999 20 10.4 102350 73
2006-04-27 07:20:47 51°17.456 2°52.206 -999 22 10.4 102350 73
2006-04-27 07:20:51 51°17.468 2°52.194 -999 22 10.4 102340 73
2006-04-27 07:20:57 51°17.485 2°52.176 -999 23 10.4 102340 73
2006-04-27 07:21:02 51°17.499 2°52.16 -999 24 10.4 102340 73
2006-04-27 07:21:07 51°17.513 2°52.145 -999 24 10.4 102340 73
2006-04-27 07:21:09 51°17.518 2°52.138 -999 22 10.4 102340 73
2006-04-27 07:21:17 51°17.54 2°52.111 -999 25 10.4 102340 73
2006-04-27 07:21:22 51°17.553 2°52.093 -999 25 10.4 102340 73
2006-04-27 07:21:27 51°17.567 2°52.075 -999 24 10.4 102340 73
2006-04-27 07:21:32 51°17.58 2°52.057 -999 23 10.4 102340 73
2006-04-27 07:21:37 51°17.592 2°52.038 -999 22 10.4 102340 73
2006-04-27 07:21:41 51°17.602 2°52.022 -999 23 10.4 102340 73
2006-04-27 07:21:47 51°17.617 2°51.998 -999 24 10.4 102340 73
2006-04-27 07:21:52 51°17.629 2°51.978 -999 26 10.4 102340 73
2006-04-27 07:21:57 51°17.641 2°51.957 -999 26 10.4 102340 73
2006-04-27 07:22:01 51°17.65 2°51.94 -999 24 10.4 102340 73
2006-04-27 07:22:07 51°17.664 2°51.914 -999 24 10.4 102340 73
2006-04-27 07:22:12 51°17.675 2°51.893 -999 25 10.4 102350 73
2006-04-27 07:22:17 51°17.687 2°51.871 -999 26 10.4 102350 73
2006-04-27 07:22:21 51°17.696 2°51.854 -999 27 10.4 102340 73
2006-04-27 07:22:27 51°17.708 2°51.826 -999 27 10.4 102340 73
2006-04-27 07:22:32 51°17.718 2°51.802 -999 26 10.4 102350 73
2006-04-27 07:22:37 51°17.727 2°51.778 -999 27 10.4 102350 73
2006-04-27 07:22:41 51°17.734 2°51.757 -999 26 10.4 102340 73
2006-04-27 07:22:47 51°17.743 2°51.726 -999 27 10.4 102340 73
2006-04-27 07:22:52 51°17.751 2°51.699 -999 28 10.4 102350 73
2006-04-27 07:22:57 51°17.758 2°51.672 -999 28 10.4 102350 73
2006-04-27 07:23:01 51°17.763 2°51.65 -999 28 10.4 102350 74
2006-04-27 07:23:07 51°17.771 2°51.617 -999 28 10.4 102350 74
2006-04-27 07:23:12 51°17.777 2°51.589 -999 26 10.4 102350 74
2006-04-27 07:23:17 51°17.783 2°51.561 -999 26 10.4 102350 74
2006-04-27 07:23:22 51°17.789 2°51.533 -999 25 10.4 102350 74
2006-04-27 07:23:27 51°17.795 2°51.505 -999 30 10.4 102350 74
2006-04-27 07:23:32 51°17.801 2°51.477 -999 29 10.4 102350 74
2006-04-27 07:23:37 51°17.808 2°51.449 -999 26 10.4 102350 74
2006-04-27 07:23:41 51°17.813 2°51.427 -999 25 10.4 102350 74
2006-04-27 07:23:47 51°17.822 2°51.394 -999 26 10.4 102350 74
2006-04-27 07:23:52 51°17.83 2°51.368 -999 24 10.4 102350 74
2006-04-27 07:23:56 51°17.836 2°51.346 -999 26 10.4 102350 74
2006-04-27 07:24:01 51°17.844 2°51.319 -999 26 10.4 102350 74
2006-04-27 07:24:07 51°17.854 2°51.287 -999 23 10.4 102350 74
2006-04-27 07:24:12 51°17.862 2°51.26 -999 26 10.4 102350 74
2006-04-27 07:24:17 51°17.871 2°51.233 -999 25 10.4 102350 74
2006-04-27 07:24:21 51°17.877 2°51.211 -999 21 10.3 102350 74
2006-04-27 07:24:27 51°17.887 2°51.179 -999 24 10.3 102350 74
2006-04-27 07:24:32 51°17.895 2°51.152 -999 23 10.3 102350 74
2006-04-27 07:24:37 51°17.903 2°51.124 -999 23 10.3 102350 74
2006-04-27 07:24:41 51°17.909 2°51.102 -999 24 10.3 102350 74
2006-04-27 07:24:47 51°17.919 2°51.069 -999 25 10.3 102350 74
2006-04-27 07:24:52 51°17.926 2°51.041 -999 24 10.3 102350 74
2006-04-27 07:24:57 51°17.933 2°51.013 -999 24 10.3 102350 74
2006-04-27 07:25:00 51°17.938 2°50.996 -999 27 10.4 102350 75
2006-04-27 07:25:07 51°17.949 2°50.957 -999 26 10.4 102350 75
2006-04-27 07:25:12 51°17.956 2°50.929 -999 24 10.3 102350 74
2006-04-27 07:25:17 51°17.963 2°50.901 -999 25 10.3 102350 74
2006-04-27 07:25:22 51°17.971 2°50.872 -999 24 10.3 102350 75
2006-04-27 07:25:27 51°17.978 2°50.844 -999 23 10.3 102350 75
2006-04-27 07:25:32 51°17.986 2°50.817 -999 22 10.3 102340 74
2006-04-27 07:25:36 51°17.992 2°50.794 -999 24 10.3 102340 74
2006-04-27 07:25:40 51°17.998 2°50.772 -999 23 10.3 102350 74
2006-04-27 07:25:47 51°18.009 2°50.732 -999 24 10.3 102350 74
2006-04-27 07:25:52 51°18.017 2°50.705 -999 20 10.3 102350 75
2006-04-27 07:25:57 51°18.024 2°50.677 -999 20 10.3 102350 75
2006-04-27 07:26:01 51°18.03 2°50.655 -999 23 10.3 102350 75
2006-04-27 07:26:07 51°18.039 2°50.621 -999 22 10.3 102350 75
2006-04-27 07:26:12 51°18.047 2°50.593 -999 22 10.3 102350 75
2006-04-27 07:26:16 51°18.054 2°50.571 -999 22 10.3 102350 75
2006-04-27 07:26:20 51°18.06 2°50.548 -999 22 10.3 102350 75
2006-04-27 07:26:27 51°18.071 2°50.51 -999 22 10.3 102350 75
2006-04-27 07:26:32 51°18.079 2°50.482 -999 22 10.3 102350 75
2006-04-27 07:26:36 51°18.085 2°50.46 -999 23 10.3 102350 75
2006-04-27 07:26:40 51°18.091 2°50.438 -999 24 10.3 102350 75
2006-04-27 07:26:47 51°18.102 2°50.399 -999 24 10.3 102350 75
2006-04-27 07:26:52 51°18.11 2°50.371 -999 24 10.3 102350 75
2006-04-27 07:26:57 51°18.117 2°50.342 -999 23 10.3 102350 75
2006-04-27 07:27:01 51°18.123 2°50.32 -999 22 10.3 102350 75
2006-04-27 07:27:07 51°18.132 2°50.286 -999 22 10.3 102350 75
2006-04-27 07:27:12 51°18.139 2°50.258 -999 22 10.3 102350 75
2006-04-27 07:27:17 51°18.147 2°50.23 -999 22 10.3 102350 75
2006-04-27 07:27:21 51°18.152 2°50.207 -999 20 10.3 102350 75
2006-04-27 07:27:27 51°18.161 2°50.174 -999 24 10.3 102350 75
2006-04-27 07:27:32 51°18.169 2°50.145 -999 21 10.3 102350 75
2006-04-27 07:27:37 51°18.176 2°50.117 -999 21 10.3 102350 75
2006-04-27 07:27:41 51°18.182 2°50.095 -999 21 10.3 102350 75
2006-04-27 07:27:47 51°18.192 2°50.061 -999 19 10.3 102350 75
2006-04-27 07:27:52 51°18.199 2°50.033 -999 20 10.3 102350 75
2006-04-27 07:27:57 51°18.207 2°50.004 -999 19 10.3 102350 75
2006-04-27 07:28:02 51°18.214 2°49.976 -999 20 10.3 102350 75
2006-04-27 07:28:07 51°18.221 2°49.948 -999 18 10.3 102350 75
2006-04-27 07:28:08 51°18.222 2°49.942 -999 17 10.3 102350 75
2006-04-27 07:28:17 51°18.236 2°49.891 -999 19 10.3 102350 75
2006-04-27 07:28:22 51°18.243 2°49.862 -999 18 10.3 102350 75
2006-04-27 07:28:27 51°18.25 2°49.833 -999 16 10.3 102350 75
2006-04-27 07:28:32 51°18.257 2°49.805 -999 17 10.3 102350 75
2006-04-27 07:28:37 51°18.264 2°49.776 -999 18 10.3 102350 75
2006-04-27 07:28:41 51°18.27 2°49.753 -999 17 10.3 102350 75
2006-04-27 07:28:45 51°18.276 2°49.73 -999 17 10.3 102350 75
2006-04-27 07:28:51 51°18.285 2°49.695 -999 19 10.3 102350 75
2006-04-27 07:28:57 51°18.294 2°49.661 -999 17 10.3 102350 75
2006-04-27 07:29:02 51°18.302 2°49.632 -999 18 10.4 102350 75
2006-04-27 07:29:07 51°18.309 2°49.604 -999 17 10.4 102350 75
2006-04-27 07:29:12 51°18.317 2°49.576 -999 19 10.4 102350 75
2006-04-27 07:29:17 51°18.324 2°49.547 -999 17 10.4 102350 75
2006-04-27 07:29:21 51°18.33 2°49.524 -999 19 10.3 102350 75
2006-04-27 07:29:27 51°18.339 2°49.49 -999 17 10.3 102350 75
2006-04-27 07:29:32 51°18.347 2°49.462 -999 17 10.4 102340 75
2006-04-27 07:29:37 51°18.354 2°49.434 -999 17 10.4 102340 75
2006-04-27 07:29:41 51°18.36 2°49.412 -999 18 10.3 102350 75
2006-04-27 07:29:47 51°18.369 2°49.378 -999 17 10.3 102350 75
2006-04-27 07:29:52 51°18.377 2°49.35 -999 18 10.3 102350 75
2006-04-27 07:29:57 51°18.385 2°49.323 -999 20 10.3 102350 75
2006-04-27 07:30:01 51°18.391 2°49.3 -999 19 10.3 102350 75
2006-04-27 07:30:07 51°18.401 2°49.267 -999 20 10.3 102350 75
2006-04-27 07:30:11 51°18.407 2°49.245 -999 16 10.3 102350 75
2006-04-27 07:30:16 51°18.415 2°49.218 -999 20 10.3 102350 75
2006-04-27 07:30:20 51°18.421 2°49.196 -999 18 10.3 102350 75
2006-04-27 07:30:26 51°18.431 2°49.163 -999 17 10.3 102350 75
2006-04-27 07:30:31 51°18.439 2°49.137 -999 19 10.3 102350 75
2006-04-27 07:30:37 51°18.449 2°49.104 -999 19 10.3 102350 75
2006-04-27 07:30:42 51°18.457 2°49.076 -999 19 10.3 102350 75
2006-04-27 07:30:47 51°18.465 2°49.049 -999 16 10.3 102350 75
2006-04-27 07:30:52 51°18.473 2°49.022 -999 19 10.3 102350 75
2006-04-27 07:30:57 51°18.481 2°48.994 -999 20 10.3 102350 75
2006-04-27 07:31:01 51°18.488 2°48.972 -999 18 10.3 102350 76
2006-04-27 07:31:07 51°18.497 2°48.938 -999 18 10.3 102350 76
2006-04-27 07:31:12 51°18.505 2°48.911 -999 18 10.3 102350 76
2006-04-27 07:31:17 51°18.513 2°48.883 -999 20 10.3 102350 76
2006-04-27 07:31:22 51°18.521 2°48.855 -999 21 10.3 102340 76
2006-04-27 07:31:27 51°18.53 2°48.829 -999 20 10.3 102340 76
2006-04-27 07:31:31 51°18.536 2°48.807 -999 19 10.3 102350 76
2006-04-27 07:31:37 51°18.547 2°48.774 -999 18 10.3 102350 76
2006-04-27 07:31:41 51°18.553 2°48.752 -999 18 10.3 102350 76
2006-04-27 07:31:47 51°18.564 2°48.72 -999 18 10.3 102350 76
2006-04-27 07:31:52 51°18.572 2°48.692 -999 18 10.3 102350 76
2006-04-27 07:31:57 51°18.58 2°48.664 -999 20 10.3 102350 76
2006-04-27 07:32:02 51°18.588 2°48.636 -999 19 10.3 102350 76
2006-04-27 07:32:07 51°18.596 2°48.609 -999 19 10.3 102350 76
2006-04-27 07:32:12 51°18.603 2°48.581 -999 18 10.3 102350 76
2006-04-27 07:32:17 51°18.61 2°48.552 -999 20 10.3 102350 76
2006-04-27 07:32:21 51°18.616 2°48.529 -999 20 10.3 102350 76
2006-04-27 07:32:27 51°18.625 2°48.495 -999 21 10.3 102350 76
2006-04-27 07:32:32 51°18.632 2°48.466 -999 20 10.3 102350 76
2006-04-27 07:32:37 51°18.639 2°48.437 -999 17 10.3 102350 76
2006-04-27 07:32:41 51°18.645 2°48.415 -999 20 10.3 102350 76
2006-04-27 07:32:47 51°18.654 2°48.38 -999 19 10.3 102350 76
2006-04-27 07:32:52 51°18.662 2°48.353 -999 18 10.3 102340 76
2006-04-27 07:32:57 51°18.67 2°48.324 -999 18 10.3 102340 76
2006-04-27 07:33:00 51°18.675 2°48.308 -999 20 10.3 102350 76
2006-04-27 07:33:07 51°18.686 2°48.268 -999 18 10.3 102350 76
2006-04-27 07:33:12 51°18.694 2°48.24 -999 19 10.3 102350 76
2006-04-27 07:33:17 51°18.702 2°48.212 -999 18 10.3 102350 76
2006-04-27 07:33:21 51°18.709 2°48.189 -999 17 10.3 102350 76
2006-04-27 07:33:27 51°18.718 2°48.155 -999 19 10.3 102350 76
2006-04-27 07:33:32 51°18.726 2°48.127 -999 18 10.3 102350 76
2006-04-27 07:33:37 51°18.733 2°48.098 -999 17 10.3 102350 76
2006-04-27 07:33:41 51°18.74 2°48.075 -999 15 10.3 102350 76
2006-04-27 07:33:47 51°18.749 2°48.04 -999 16 10.3 102350 76
2006-04-27 07:33:52 51°18.756 2°48.012 -999 15 10.3 102350 76
2006-04-27 07:33:56 51°18.762 2°47.988 -999 16 10.3 102350 76
2006-04-27 07:34:01 51°18.77 2°47.96 -999 16 10.3 102340 76
2006-04-27 07:34:07 51°18.779 2°47.925 -999 16 10.3 102340 76
2006-04-27 07:34:12 51°18.787 2°47.897 -999 14 10.3 102350 76
2006-04-27 07:34:17 51°18.795 2°47.868 -999 15 10.3 102350 76
2006-04-27 07:34:22 51°18.803 2°47.839 -999 15 10.3 102340 76
2006-04-27 07:34:27 51°18.811 2°47.811 -999 15 10.3 102340 76
2006-04-27 07:34:32 51°18.819 2°47.783 -999 15 10.3 102350 76
2006-04-27 07:34:37 51°18.826 2°47.754 -999 16 10.3 102350 76
2006-04-27 07:34:42 51°18.834 2°47.724 -999 17 10.2 102340 77
2006-04-27 07:34:47 51°18.842 2°47.696 -999 14 10.2 102340 77
2006-04-27 07:34:52 51°18.85 2°47.667 -999 14 10.2 102350 77
2006-04-27 07:34:57 51°18.857 2°47.638 -999 15 10.2 102350 77
2006-04-27 07:35:01 51°18.864 2°47.614 -999 16 10.2 102340 77
2006-04-27 07:35:07 51°18.873 2°47.58 -999 17 10.2 102340 77
2006-04-27 07:35:12 51°18.881 2°47.551 -999 18 10.2 102350 77
2006-04-27 07:35:17 51°18.889 2°47.522 -999 17 10.2 102350 77
2006-04-27 07:35:21 51°18.896 2°47.499 -999 18 10.2 102350 77
2006-04-27 07:35:27 51°18.905 2°47.464 -999 17 10.2 102350 77
2006-04-27 07:35:32 51°18.912 2°47.435 -999 17 10.2 102340 77
2006-04-27 07:35:37 51°18.92 2°47.406 -999 15 10.2 102340 77
2006-04-27 07:35:42 51°18.928 2°47.376 -999 15 10.2 102340 77
2006-04-27 07:35:47 51°18.935 2°47.347 -999 16 10.2 102340 77
2006-04-27 07:35:51 51°18.941 2°47.323 -999 15 10.2 102340 77
2006-04-27 07:35:57 51°18.951 2°47.288 -999 14 10.2 102340 77
2006-04-27 07:36:02 51°18.958 2°47.259 -999 16 10.2 102340 77
2006-04-27 07:36:07 51°18.966 2°47.23 -999 16 10.2 102340 77